Погода в Криушах

Россия / Ульяновская область     54°06′16″N   48°31′54″E
темп.,
°C
ветер,
м/с
пор.,
м/с
влажн.,
%
обл.,
%
осадки,
мм/ч
давл.,
гПа
погр.,
м
19 сентября, вс
вс1901:00+2зсз23738 0.0 1025157
04:00+2сз2379100 0.0 1025110
07:00+2сз237896 0.0 1026141
10:00+6ссз346015 0.0 1026755
13:00+9с334463 0.0 10261054
16:00+9ссв224288 0.0 1025974
19:00+6св2254100 0.0 102581
22:00+6всв125496 0.0 102566
20 сентября, пн
пн2001:00+4вюв226148 0.0 102643
04:00+4в2369100 0.0 102564
07:00+3в3575100 0.0 1025117
10:00+8вюв4655100 0.0 1026579
13:00+10вюв4544100 0.0 1025939
16:00+10вюв4645100 0.0 10241057
19:00+9вюв4749100 0.0 1024575
22:00+9вюв4953100 0.1 1024623
21 сентября, вт
вт2101:00+8юв4971100 0.3 1023713
04:00+8вюв51166100 0.4 1022746
07:00+7вюв61276100 0.4 1022589
10:00+6вюв61386100 1.1 1021532
13:00+7вюв6138197 0.6 1020554
16:00+9вюв6106876 0.6 1019561
19:00+8вюв5107193 0.0 1019395
22:00+8вюв51268100 0.1 1017411
22 сентября, ср
ср2201:00+8вюв5116946 0.0 1016313
04:00+7вюв41069100 0.0 1014270
07:00+9вюв51167100 0.4 1013326
10:00+9вюв61487100 3.2 1013392
13:00+12юв61377100 0.1 1014642
16:00+11ююв31182100 0.8 1014386
19:00+11ююв51291100 0.1 1016697
22:00+11юв51278100 0.4 1017521
23 сентября, чт
чт2301:00+10юв41179100 0.0 1018308
04:00+10юв41075100 0.1 1018343
07:00+9юв4106699 0.0 1018303
10:00+13ююв61050100 0.0 1019538
13:00+12ююв51291100 0.1 1020713
16:00+11ююв71489100 0.9 1021981
19:00+10юв71284100 0.1 1022733
22:00+9ююв61286100 0.2 1022565